This demonstration page uses our WeatherBlox Daily Observations layout. Learn more.

Left ArrowRight Arrow

40.92945, -100.16068

Hourly Observations for October 31, 2020

Temp ( °F °C ) Dew Point ( °F °C ) Humidity (%) Winds ( mph kmh ) Pressure ( in mb ) Visibility ( mi km ) Precip ( " mm )
12:15 am 00:15 Clear 53 11.5 39 3.7 59 59 SSW 16 26 29.92 1013 10 16.0934 0 0
12:35 am 00:35 Clear 52 11 39 3.7 61 61 SSW 17 28 29.91 1013 10 16.0934 0 0
12:55 am 00:55 Clear 51 10.6 39 3.9 64 64 SSW 18 30 29.91 1013 10 16.0934 0 0
1:15 am 01:15 Clear 51 10.3 39 4 65 65 SSW 17 28 29.9 1012 10 16.0934 0 0
1:35 am 01:35 Clear 50 10 39 4 67 67 SSW 15 24 29.89 1012 10 16.0934 0 0
1:55 am 01:55 Clear 49 9.6 39 4 68 68 SSW 16 26 29.89 1012 10 16.0934 0 0
2:15 am 02:15 Clear 49 9.5 39 4 69 69 S 15 24 29.88 1012 10 16.0934 0 0
2:35 am 02:35 Clear 48 9 39 3.8 70 70 S 15 24 29.88 1012 10 16.0934 0 0
2:55 am 02:55 Clear 48 8.7 39 3.8 72 72 S 9 15 29.89 1012 10 16.0934 0 0
3:15 am 03:15 Clear 47 8.1 38 3.5 73 73 S 8 13 29.89 1012 10 16.0934 0 0
3:35 am 03:35 Clear 48 8.8 39 3.9 72 72 S 5 7 29.89 1012 10 16.0934 0 0
3:55 am 03:55 Clear 47 8.1 39 3.7 74 74 SSW 12 19 29.88 1012 10 16.0934 0 0
4:15 am 04:15 Clear 44 6.5 37 2.9 78 78 SSE 7 11 29.89 1012 10 16.0934 0 0
4:35 am 04:35 Clear 42 5.7 37 2.7 81 81 S 7 11 29.89 1012 10 16.0934 0 0
4:55 am 04:55 Clear 42 5.5 37 3 84 84 SE 8 13 29.88 1012 10 16.0934 0 0
5:15 am 05:15 Clear 41 4.9 37 2.8 86 86 S 7 11 29.88 1012 10 16.0934 0 0
5:35 am 05:35 Clear 41 5.2 37 2.9 85 85 SSE 6 9 29.88 1012 10 16.0934 0 0
5:55 am 05:55 Clear 41 5.2 37 2.9 85 85 S 8 13 29.88 1012 10 16.0934 0 0
6:15 am 06:15 Clear 42 5.3 37 2.8 84 84 W 6 9 29.91 1013 10 16.0934 0 0
6:35 am 06:35 Clear 38 3.3 36 2 91 91 WSW 5 7 29.91 1013 10 16.0934 0 0
6:55 am 06:55 Clear 38 3.4 35 1.9 90 90 WSW 6 9 29.91 1013 10 16.0934 0 0
7:15 am 07:15 Clear 37 3 35 1.7 91 91 SW 5 7 29.92 1013 10 16.0934 0 0
7:35 am 07:35 Clear 35 1.5 34 0.9 96 96 WNW 9 15 29.97 1015 10 16.0934 0 0
7:55 am 07:55 Clear 35 1.6 33 0.8 94 94 WNW 7 11 29.97 1015 10 16.0934 0 0
8:15 am 08:15 Sunny 34 1.2 33 0.4 94 94 WNW 6 9 29.98 1015 10 16.0934 0 0
8:35 am 08:35 Sunny 36 2.4 34 1.1 91 91 WNW 14 22 29.98 1015 10 16.0934 0 0
8:55 am 08:55 Sunny 39 3.8 35 1.4 85 85 WNW 10 17 29.98 1015 10 16.0934 0 0
9:15 am 09:15 Sunny 41 5 35 1.7 79 79 WNW 13 20 30 1016 10 16.0934 0 0
9:35 am 09:35 Sunny 43 6.1 36 2 75 75 WNW 10 17 30 1016 10 16.0934 0 0
9:55 am 09:55 Sunny 46 7.7 37 2.5 70 70 NW 10 17 29.99 1016 10 16.0934 0 0
10:15 am 10:15 Sunny 49 9.2 37 3 65 65 NW 12 19 30 1016 10 16.0934 0 0
10:35 am 10:35 Sunny 52 11.1 37 2.9 57 57 NW 12 19 29.99 1016 10 16.0934 0 0
10:55 am 10:55 Sunny 58 14.3 34 1.2 41 41 NNW 17 28 29.98 1015 10 16.0934 0 0
11:15 am 11:15 Sunny 60 15.4 32 0.1 35 35 NNW 17 28 29.97 1015 10 16.0934 0 0
11:35 am 11:35 Sunny 61 16.1 31 -0.4 33 33 N 20 31 29.98 1015 10 16.0934 0 0
11:55 am 11:55 Sunny 62 16.4 30 -1.1 30 30 NNW 20 31 29.98 1015 10 16.0934 0 0
12:15 pm 12:15 Sunny 62 16.9 30 -1.2 29 29 NNW 20 31 29.99 1016 10 16.0934 0 0
12:35 pm 12:35 Sunny 64 17.5 29 -1.5 28 28 NNW 23 37 29.99 1016 10 16.0934 0 0
12:55 pm 12:55 Sunny 64 17.9 30 -1.3 27 27 N 20 31 29.99 1016 10 16.0934 0 0
1:15 pm 13:15 Sunny 65 18.1 30 -1.1 27 27 NNW 25 41 30 1016 10 16.0934 0 0
1:35 pm 13:35 Sunny 65 18.3 30 -1.2 27 27 NNW 21 33 30 1016 10 16.0934 0 0
1:55 pm 13:55 Sunny 65 18.3 29 -1.5 26 26 NNW 26 43 30.01 1016 10 16.0934 0 0
2:15 pm 14:15 Sunny 64 17.7 29 -1.4 27 27 N 22 35 30.02 1017 10 16.0934 0 0
2:35 pm 14:35 Sunny 64 17.5 29 -1.4 28 28 NNW 24 39 30.02 1017 10 16.0934 0 0
2:55 pm 14:55 Sunny 65 18.4 29 -1.5 26 26 NW 22 35 30.03 1017 10 16.0934 0 0
3:15 pm 15:15 Sunny 64 18 28 -2 26 26 NW 25 41 30.03 1017 10 16.0934 0 0
3:35 pm 15:35 Sunny 66 18.8 28 -2.2 24 24 NNW 22 35 30.03 1017 10 16.0934 0 0
3:55 pm 15:55 Sunny 65 18.3 26 -3.1 23 23 NNW 24 39 30.05 1017 10 16.0934 0 0
4:15 pm 16:15 Partly Cloudy 65 18.2 26 -3.1 23 23 NNW 23 37 30.06 1018 10 16.0934 0 0
4:35 pm 16:35 Partly Cloudy 64 17.7 27 -2.8 25 25 NW 28 44 30.07 1018 10 16.0934 0 0
4:55 pm 16:55 Sunny 63 17.2 28 -2.5 26 26 NNW 22 35 30.1 1019 10 16.0934 0 0
5:15 pm 17:15 Sunny 63 17 28 -2.1 27 27 NNW 22 35 30.11 1020 10 16.0934 0 0
5:35 pm 17:35 Sunny 62 16.5 28 -2.1 28 28 NNW 22 35 30.12 1020 10 16.0934 0 0
5:55 pm 17:55 Sunny 60 15.8 29 -1.5 31 31 N 16 26 30.13 1020 10 16.0934 0 0
6:15 pm 18:15 Sunny 59 14.9 30 -1.3 33 33 N 14 22 30.16 1021 10 16.0934 0 0
6:35 pm 18:35 Sunny 56 13.2 32 -0.2 40 40 N 14 22 30.19 1022 10 16.0934 0 0
6:55 pm 18:55 Clear 54 12.3 32 -0.2 42 42 N 10 17 30.22 1023 10 16.0934 0 0
7:15 pm 19:15 Clear 52 11.2 31 -0.3 45 45 NNW 9 15 30.24 1024 10 16.0934 0 0
7:35 pm 19:35 Clear 48 8.7 31 -0.7 52 52 NNW 8 13 30.26 1025 10 16.0934 0 0
7:55 pm 19:55 Clear 45 7.2 30 -1.1 56 56 N 9 15 30.29 1026 10 16.0934 0 0
8:15 pm 20:15 Clear 45 7 30 -1.1 57 57 N 6 9 30.3 1026 10 16.0934 0 0
8:35 pm 20:35 Clear 44 6.5 29 -1.4 57 57 NNW 5 7 30.32 1027 10 16.0934 0 0
8:55 pm 20:55 Clear 40 4.5 28 -2.3 62 62 NNW 5 7 30.35 1028 10 16.0934 0 0
9:15 pm 21:15 Clear 43 6 29 -1.4 59 59 N 9 15 30.35 1028 10 16.0934 0 0
9:35 pm 21:35 Clear 42 5.5 28 -2 59 59 NNW 9 15 30.36 1028 10 16.0934 0 0
9:55 pm 21:55 Clear 40 4.5 28 -2.4 61 61 NNW 9 15 30.38 1029 10 16.0934 0 0
10:15 pm 22:15 Clear 38 3.4 27 -2.9 64 64 NNW 7 11 30.4 1030 10 16.0934 0 0
10:35 pm 22:35 Clear 35 1.5 25 -3.8 68 68 Calm 30.43 1031 10 16.0934 0 0
10:55 pm 22:55 Clear 37 2.5 26 -3.4 65 65 N 9 15 30.43 1031 10 16.0934 0 0
11:15 pm 23:15 Clear 40 4.7 26 -3.3 57 57 N 9 15 30.42 1030 10 16.0934 0 0
11:35 pm 23:35 Clear 38 3.5 26 -3.6 60 60 NNW 8 13 30.44 1031 10 16.0934 0 0
11:55 pm 23:55 Clear 40 4.7 26 -3.1 57 57 NNW 12 19 30.44 1031 10 16.0934 0 0

Powered by AerisWeather